Location: Cape Cod Imaging Station
(41.7417°N, 70.1583°W)
Time: 07:33:07
(UTC-04:00)

Hubble Space Telescope - Visible Passes

Search period start: 24 October 2017 00:00
Search period end: 03 November 2017 00:00
Orbit: 537 x 541 km, 28.5° (Epoch: 23 October)

Date Brightness Start Highest point End Pass type
(mag) Time Alt. Az. Time Alt. Az. Time Alt. Az.
24 Oct 3.2 19:49:29 10° SSW 19:50:53 13° S 19:50:53 13° S visible
25 Oct 3.2 19:39:14 10° SSW 19:41:03 13° S 19:41:16 13° S visible
26 Oct 3.2 19:29:05 10° SSW 19:30:43 12° S 19:31:41 11° S visible
27 Oct 3.3 19:19:04 10° SSW 19:20:23 11° S 19:21:42 10° S visible
28 Oct 3.5 19:09:25 10° SSW 19:10:03 10° S 19:10:41 10° S visible
